Temperature
19 19 18 18 18 18 18 18 18 18 18 17 17 17 17 17 17 17 17 17 17 17 17 17 17 17 17 17 17 17 17 17 16 16 16 16 16 16 16 16 16 16 16
19 19 18 18 18 18 18 17 17 17 17 17 17 17 17 17 17 17 17 16 16 16 16 16 16 16 16 16 16 16 16 16 16 16 15 15 15 15 15 15 15 15 15
19 18 18 18 18 17 17 17 17 17 17 17 17 17 17 16 16 16 16 16 16 16 16 16 16 16 16 16 16 16 16 16 16 15 15 15 15 15 15 15 14 14 14
18 18 18 17 17 17 17 17 16 16 16 16 16 16 16 16 16 16 16 16 16 16 16 16 16 16 16 16 15 15 15 15 15 15 15 14 14 14 14 14 14 14 13
18 18 17 17 17 17 16 16 16 16 16 16 16 16 16 16 16 16 16 16 15 15 15 15 15 15 15 15 15 15 15 15 15 14 14 14 14 14 13 13 13 13 13
18 17 17 17 17 16 16 16 16 16 16 16 16 16 16 15 15 15 15 15 15 15 15 14 14 14 14 14 14 14 14 14 14 14 14 13 13 13 13 13 12 12 12
17 17 17 17 16 16 16 16 15 15 15 15 15 15 15 15 15 15 15 15 15 15 15 14 14 14 14 14 14 14 14 14 13 13 13 13 12 12 12 12 12 12 12
17 17 16 16 16 15 15 15 15 15 15 15 15 15 15 15 15 15 15 15 14 14 14 14 14 13 13 13 13 13 13 13 13 13 12 12 12 12 12 12 12 11 11
17 16 16 16 15 15 15 15 15 15 14 14 14 15 15 14 14 14 14 14 14 14 13 13 13 13 13 13 13 12 12 12 12 12 12 12 11 11 11 11 11 11 11
16 16 16 15 15 15 15 14 14 14 14 14 14 14 14 14 14 14 14 13 13 13 13 13 13 12 12 12 12 12 11 11 11 11 11 11 11 11 10 11 10 10 10
16 16 15 15 15 14 14 14 14 14 14 14 13 13 13 13 13 13 13 13 13 12 12 12 12 12 12 12 11 11 11 11 11 10 10 10 10 10 10 10 10 10 10
16 15 15 15 14 14 14 14 14 14 13 13 13 13 13 13 13 13 12 12 12 12 11 11 11 11 11 11 11 10 10 10 10 10 10 9 9 9 9 9 9 9 9
15 15 14 14 14 14 14 14 13 13 13 13 12 12 12 12 12 12 11 11 11 11 11 11 11 10 10 10 10 10 10 10 9 9 9 9 9 9 9 9 9 9 9
15 14 14 14 13 13 13 13 13 13 12 12 12 12 11 11 11 11 11 11 11 11 10 10 10 10 10 9 9 9 9 9 9 9 9 9 9 9 8 8 8 8 8
14 14 13 13 13 13 13 13 13 12 12 12 12 11 11 11 11 11 11 10 10 10 10 10 10 9 9 9 9 9 9 8 8 8 8 8 8 8 8 8 8 8 8
13 13 13 12 12 12 12 12 12 12 12 11 11 11 11 10 10 10 10 10 10 10 10 9 9 9 9 9 8 8 8 8 8 8 8 8 8 8 8 8 8 8 8
13 13 12 12 12 12 12 12 11 11 11 11 11 10 10 10 10 10 10 10 10 9 9 9 9 9 8 8 8 8 8 8 8 7 7 7 7 8 7 7 7 7 7
12 12 12 12 12 12 11 11 11 11 10 10 10 10 10 10 9 9 9 9 9 9 9 9 8 8 8 8 8 8 8 8 7 7 7 7 7 7 7 7 7 7 7
12 12 12 12 12 11 11 11 11 10 10 10 10 10 9 9 9 9 9 9 9 9 8 8 8 8 8 8 8 8 7 7 7 7 7 7 7 7 7 7 7 7 7
12 12 12 12 12 12 12 11 11 11 10 10 10 9 9 9 9 9 8 8 8 8 8 8 8 8 8 8 8 7 7 7 7 7 7 7 7 7 7 7 7 7 7
12 12 12 12 12 12 11 11 11 11 10 10 9 9 9 9 9 8 8 8 8 8 8 8 8 7 7 7 7 7 7 7 7 6 6 6 6 6 6 6 6 6 6
12 12 12 12 11 11 11 11 11 11 10 10 9 9 9 9 8 8 8 8 7 7 7 7 7 7 7 7 7 6 6 6 6 6 6 6 6 6 6 6 6 6 6
12 12 11 11 11 11 11 11 11 10 10 10 9 9 9 8 8 8 7 7 7 7 7 7 7 6 6 6 6 6 6 6 6 6 6 6 6 6 6 6 6 6 6
12 12 11 11 11 11 11 11 10 10 10 9 9 9 8 8 8 7 7 7 7 7 7 6 6 6 6 6 6 6 6 6 6 6 5 5 5 5 5 5 5 5 5
11 11 11 11 11 11 10 10 10 10 10 9 9 8 8 8 7 7 7 7 6 6 6 6 6 6 5 5 5 5 5 5 5 5 5 5 5 5 5 5 5 5 5
11 11 11 11 11 10 10 10 10 9 9 9 8 8 8 8 7 7 7 6 6 6 6 6 6 5 5 5 5 5 5 5 5 5 5 5 5 5 5 5 5 5 5
Wind_Speed
5 5 4 4 2 2 1 0 0 0 0 0 0 0 0 0 1 1 1 1 2 1 2 2 2 2 2 2 2 2 2 1 3 3 2 1 1 2 2 2 3 4 5
5 5 4 4 3 2 1 1 1 1 1 0 0 0 1 0 0 0 0 0 0 0 1 1 2 2 2 2 2 3 2 1 2 3 2 2 1 1 1 1 2 3 4
6 6 5 4 3 3 2 2 2 2 1 1 2 1 1 1 1 0 0 1 1 2 2 2 2 2 2 2 2 2 2 1 0 1 1 1 1 1 2 1 2 3 4
7 6 6 5 4 4 3 3 3 3 3 2 2 1 1 2 2 2 2 2 2 3 3 4 4 4 4 3 3 3 2 2 1 1 0 1 1 2 1 1 2 2 3
7 7 6 5 5 4 4 4 3 3 3 3 2 2 2 2 2 2 2 3 3 4 4 4 6 7 8 6 4 4 4 3 2 2 1 2 2 2 2 1 1 2 2
7 7 6 6 5 5 5 5 4 4 4 5 4 4 5 4 5 5 4 3 4 4 4 3 4 6 7 8 9 8 6 4 3 3 3 3 3 2 1 1 0 1 1
7 6 6 6 6 5 5 5 5 5 5 6 5 6 6 6 8 7 6 4 4 5 5 4 4 6 6 6 7 8 9 8 6 4 4 3 3 3 2 2 2 1 1
7 6 6 6 6 6 6 6 5 5 6 6 6 6 6 7 8 7 5 5 6 6 6 6 6 7 7 6 6 7 7 7 6 5 5 5 5 4 3 2 1 2 2
7 6 6 6 6 6 6 5 5 5 6 6 6 7 7 8 10 8 6 5 7 8 8 9 8 8 10 8 6 6 6 5 8 9 8 7 8 8 7 4 3 2 2
6 6 6 6 6 6 5 5 5 5 6 6 7 7 8 8 11 11 7 4 6 7 7 9 12 10 10 10 6 6 5 4 4 5 5 6 6 8 9 6 4 3 2
7 7 7 6 6 6 5 5 5 6 6 7 7 7 8 9 10 11 10 5 5 6 6 6 6 9 10 10 8 6 5 3 3 4 4 4 4 4 5 6 6 4 3
7 7 7 6 6 6 6 5 5 5 5 6 6 7 7 7 9 9 10 9 7 6 6 6 6 8 9 10 8 8 8 6 4 4 4 4 4 4 4 4 6 6 4
8 7 7 7 6 6 5 5 4 3 4 4 4 5 6 6 6 9 10 10 10 6 6 7 6 6 6 6 7 8 7 4 4 5 5 4 4 4 3 3 3 3 3
8 7 7 7 8 8 6 6 5 5 4 4 5 5 5 5 5 4 4 5 6 6 5 5 4 5 4 5 5 4 4 5 5 4 4 4 3 3 3 3 2 2 2
8 7 7 8 9 9 10 9 8 8 6 5 4 5 4 4 4 5 4 3 3 4 3 2 3 3 3 3 4 4 4 4 4 4 4 4 4 3 3 3 3 3 3
7 7 7 7 7 8 9 10 15 12 13 14 11 8 6 6 5 7 8 8 8 6 4 4 4 3 3 3 3 3 3 4 4 4 4 4 3 3 3 3 3 4 3
6 5 6 7 7 7 7 8 7 8 13 14 13 11 9 6 6 6 6 7 5 4 3 4 3 3 3 3 3 3 3 3 3 3 3 3 4 3 3 3 3 4 3
6 6 5 5 6 6 6 6 6 7 6 6 6 7 6 5 5 5 4 3 3 3 3 3 3 3 3 3 3 3 3 3 3 3 3 3 3 3 3 3 3 4 4
5 5 4 5 5 5 5 6 6 7 7 7 5 3 2 2 3 4 3 2 3 3 3 3 3 3 3 2 2 2 2 2 2 2 3 3 3 3 3 4 3 4 3
5 6 5 4 5 5 4 5 5 5 6 5 5 4 2 3 2 2 2 3 3 3 3 3 3 3 3 3 2 2 3 3 3 4 4 4 4 4 4 4 4 4 3
5 6 5 4 4 4 4 4 5 5 5 5 5 4 3 2 3 4 3 3 3 3 3 3 3 3 3 3 4 5 5 4 4 4 4 4 4 4 4 4 4 4 4
4 5 4 4 5 4 4 4 5 5 5 6 5 5 3 1 3 4 3 3 3 3 4 4 4 4 5 5 5 5 5 6 6 5 6 5 5 5 4 4 4 5 4
5 6 6 5 5 5 4 4 4 5 5 5 5 5 3 1 3 4 4 4 4 4 5 6 5 6 7 7 8 8 6 6 6 6 6 6 6 5 4 4 5 5 5
5 6 6 5 5 4 4 4 4 4 5 5 4 4 3 3 3 4 3 3 3 4 5 6 6 7 9 9 9 9 9 9 9 8 9 7 7 6 5 5 5 5 5
5 5 5 5 5 4 4 4 4 4 4 4 3 3 4 3 3 3 2 3 3 4 5 5 5 6 7 9 9 9 10 11 11 10 9 8 7 6 6 6 6 5 5
4 4 4 4 4 4 4 4 4 4 3 3 3 3 3 3 3 3 2 2 2 3 3 3 5 6 6 7 7 7 8 10 11 13 10 8 6 6 7 6 7 6 6
Wind_Direction
160 163 166 161 161 167 170 129 98 50 93 92 301 23 286 270 252 240 241 239 242 259 269 260 257 267 286 296 291 283 276 233 248 275 306 339 24 24 72 101 99 114 126
143 138 133 121 120 125 124 110 95 88 99 111 26 22 284 270 87 112 255 284 310 291 307 329 319 298 291 303 309 302 295 266 235 260 293 318 325 353 19 48 91 101 109
130 123 115 110 111 104 90 86 86 81 78 64 62 51 19 9 15 27 57 48 54 48 35 33 13 2 356 342 337 326 324 326 196 213 273 317 344 4 15 25 69 77 81
120 116 111 105 98 94 86 80 80 82 77 66 63 62 50 31 15 24 61 66 63 60 56 50 40 38 29 17 12 4 0 7 53 81 31 359 6 1 24 50 66 61 67
115 115 109 103 98 94 86 76 69 73 78 67 53 41 42 47 23 32 71 76 65 60 60 61 61 62 58 53 48 30 27 30 40 52 36 21 15 14 5 7 79 81 63
113 115 112 109 106 98 92 82 71 63 60 63 58 52 52 41 23 40 70 69 65 62 56 58 70 63 67 68 67 61 57 55 47 55 42 25 15 10 6 22 76 103 47
112 111 112 112 106 100 99 87 76 68 64 63 62 65 60 37 36 46 68 78 70 60 55 51 49 46 56 70 70 66 61 57 60 64 54 28 21 11 10 34 35 46 67
116 112 109 104 101 96 88 84 79 76 68 64 61 60 61 43 39 46 64 84 79 67 58 57 59 51 42 57 72 69 63 54 53 63 62 50 46 29 23 33 62 78 96
113 110 107 106 105 102 96 89 84 83 79 73 65 60 58 42 34 43 63 94 86 72 64 56 54 53 33 46 67 71 70 63 63 67 68 68 58 45 39 37 36 55 51
111 108 107 106 108 107 102 98 94 91 86 80 70 62 58 50 42 38 38 81 91 90 82 68 57 52 44 44 55 59 56 48 58 61 57 55 54 50 45 36 26 31 35
106 104 103 105 106 101 97 97 97 93 90 87 81 70 63 54 52 46 42 59 75 82 83 76 60 50 51 47 49 52 44 31 53 58 58 55 46 43 45 42 34 41 37
108 105 103 106 108 106 102 98 100 104 103 98 93 82 70 61 53 53 52 53 61 77 81 83 76 64 60 56 53 42 37 35 35 46 51 48 46 40 40 45 45 46 48
109 106 100 96 86 90 96 97 101 104 100 100 95 87 77 71 61 59 61 61 64 74 82 92 88 77 73 65 57 41 29 26 34 46 46 41 43 38 33 36 39 42 39
109 103 100 98 89 75 65 65 60 46 66 80 82 84 83 70 55 47 62 71 79 83 90 100 92 63 58 60 53 43 41 33 38 39 32 32 34 31 25 16 12 20 40
114 112 111 101 92 79 65 51 58 53 47 57 69 79 86 82 40 29 46 47 48 61 74 102 92 84 77 71 64 51 38 31 31 28 24 24 22 21 15 7 2 1 18
131 131 122 115 110 105 98 78 53 59 58 60 64 78 73 76 69 49 41 37 42 45 65 78 70 64 63 60 57 56 46 31 23 23 19 12 7 16 14 8 3 355 359
123 122 122 123 124 120 118 114 103 71 59 58 60 70 81 79 59 45 32 21 19 38 66 74 71 59 53 53 48 47 46 34 17 20 14 9 2 3 6 6 1 353 355
120 112 115 124 129 131 132 130 128 124 110 86 63 65 73 68 49 32 25 29 54 68 58 63 68 65 56 46 41 36 41 43 17 6 4 3 355 353 354 357 8 357 351
117 114 112 117 125 131 134 134 128 124 122 121 118 94 73 80 47 22 29 49 61 67 59 52 54 53 44 34 30 24 29 37 12 0 2 353 350 352 353 349 358 356 340
117 114 117 127 132 133 128 120 118 118 117 117 114 113 143 163 113 86 64 35 49 51 38 49 51 41 29 18 20 20 19 29 20 9 358 349 348 347 346 345 345 343 340
124 125 126 122 115 111 108 108 109 114 115 112 103 93 89 114 105 93 81 61 47 48 41 35 38 37 35 27 22 17 17 20 16 2 352 346 341 341 337 338 338 339 339
124 126 129 120 113 109 111 112 111 109 109 114 117 113 103 95 92 97 90 75 60 47 46 37 38 46 39 34 29 25 23 16 9 2 353 346 344 343 341 341 342 336 339
133 127 121 115 110 111 119 120 116 117 116 112 113 119 125 99 82 80 76 65 59 54 51 47 40 41 44 42 43 41 29 13 357 355 349 339 336 334 331 335 333 336 344
131 124 123 124 122 121 114 107 105 107 110 111 112 115 118 100 85 81 80 75 63 59 60 56 53 49 47 45 50 47 35 19 8 360 346 331 328 331 333 333 331 335 334
121 125 129 126 122 120 113 102 99 101 103 105 110 114 113 109 102 94 84 82 79 66 59 62 59 60 60 61 57 48 35 25 16 2 342 327 326 331 329 329 327 323 325
128 127 127 124 117 117 121 119 115 113 109 107 111 110 112 116 106 94 89 84 83 85 74 74 75 75 69 68 64 49 32 17 5 355 341 321 320 328 332 325 325 326 325
Height
1529 1530 1532 1533 1535 1536 1537 1537 1538 1538 1538 1539 1539 1540 1540 1540 1540 1541 1541 1541 1541 1541 1541 1541 1542 1542 1543 1543 1544 1544 1544 1544 1544 1543 1544 1543 1543 1543 1542 1542 1542 1542 1542
1528 1530 1531 1532 1533 1534 1535 1535 1536 1536 1536 1537 1537 1537 1538 1538 1538 1538 1539 1539 1539 1539 1539 1539 1539 1540 1540 1540 1541 1541 1541 1541 1541 1540 1540 1540 1540 1539 1539 1538 1538 1538 1538
1528 1529 1530 1531 1532 1533 1534 1534 1535 1534 1535 1535 1535 1535 1536 1537 1537 1537 1537 1537 1537 1537 1537 1537 1537 1538 1538 1538 1539 1539 1539 1539 1539 1538 1538 1538 1537 1537 1536 1536 1535 1535 1535
1527 1528 1529 1530 1532 1533 1533 1534 1534 1533 1533 1533 1534 1534 1535 1535 1535 1536 1536 1536 1536 1536 1536 1536 1536 1536 1536 1536 1537 1537 1537 1536 1536 1536 1536 1535 1535 1535 1534 1533 1533 1533 1532
1527 1528 1529 1530 1531 1532 1532 1533 1533 1533 1533 1533 1533 1533 1534 1534 1534 1534 1535 1535 1535 1535 1535 1535 1535 1535 1535 1535 1535 1535 1535 1534 1534 1534 1534 1533 1533 1533 1532 1532 1532 1531 1531
1527 1528 1529 1530 1531 1532 1532 1533 1533 1532 1532 1532 1532 1532 1532 1533 1533 1534 1534 1534 1534 1534 1534 1535 1535 1535 1534 1534 1534 1534 1534 1533 1533 1533 1532 1532 1532 1532 1531 1531 1530 1530 1530
1528 1529 1530 1531 1532 1532 1533 1533 1533 1533 1532 1532 1532 1532 1532 1533 1533 1533 1533 1534 1534 1534 1534 1534 1534 1534 1534 1534 1534 1533 1533 1533 1533 1533 1532 1531 1531 1530 1530 1529 1529 1529 1529
1529 1530 1531 1531 1532 1533 1533 1533 1533 1533 1533 1533 1533 1533 1532 1533 1533 1533 1533 1534 1534 1534 1534 1534 1534 1534 1534 1534 1534 1533 1533 1532 1532 1532 1532 1531 1531 1531 1530 1529 1529 1529 1529
1528 1530 1531 1532 1532 1533 1533 1534 1534 1534 1534 1534 1534 1533 1533 1533 1533 1533 1534 1534 1534 1534 1535 1535 1535 1534 1534 1534 1534 1534 1533 1533 1533 1533 1533 1532 1532 1531 1531 1530 1529 1529 1529
1528 1529 1531 1532 1533 1534 1534 1535 1535 1535 1535 1535 1535 1535 1535 1534 1534 1534 1535 1535 1535 1535 1535 1535 1536 1536 1536 1535 1535 1535 1535 1535 1534 1534 1534 1533 1533 1532 1531 1531 1530 1530 1530
1528 1529 1531 1532 1533 1534 1535 1536 1536 1536 1536 1537 1536 1536 1536 1536 1536 1536 1536 1536 1536 1536 1536 1536 1537 1537 1537 1537 1536 1536 1537 1537 1536 1536 1535 1535 1534 1533 1533 1532 1531 1531 1530
1528 1529 1531 1532 1534 1535 1536 1536 1537 1537 1538 1538 1538 1538 1538 1538 1537 1537 1538 1538 1538 1538 1538 1538 1538 1538 1538 1538 1538 1538 1538 1538 1538 1537 1537 1536 1535 1535 1534 1533 1533 1532 1531
1528 1529 1531 1533 1534 1535 1536 1537 1538 1539 1539 1540 1539 1539 1539 1539 1539 1539 1539 1540 1540 1540 1540 1540 1540 1540 1540 1540 1540 1540 1540 1539 1539 1538 1538 1538 1537 1536 1535 1534 1533 1532 1532
1528 1530 1532 1533 1534 1535 1536 1537 1538 1539 1540 1540 1540 1540 1540 1540 1540 1540 1541 1541 1541 1541 1541 1542 1542 1542 1542 1542 1542 1541 1541 1541 1540 1540 1539 1539 1538 1537 1536 1535 1534 1533 1532
1529 1531 1533 1534 1535 1535 1536 1537 1538 1539 1540 1541 1541 1541 1541 1541 1541 1541 1542 1542 1542 1543 1543 1543 1543 1544 1543 1543 1543 1542 1542 1542 1541 1541 1540 1539 1539 1538 1537 1536 1535 1534 1532
1530 1532 1534 1535 1536 1536 1537 1538 1539 1540 1541 1542 1542 1542 1542 1542 1542 1543 1543 1544 1544 1544 1544 1545 1545 1545 1545 1545 1545 1544 1543 1543 1542 1542 1541 1540 1539 1538 1537 1536 1535 1534 1533
1532 1533 1535 1536 1537 1538 1539 1539 1540 1541 1542 1543 1543 1543 1543 1544 1544 1544 1545 1545 1546 1546 1546 1546 1546 1547 1547 1546 1546 1545 1545 1544 1543 1543 1542 1541 1540 1539 1538 1537 1535 1534 1533
1533 1535 1536 1537 1538 1539 1540 1541 1541 1542 1543 1543 1544 1545 1545 1545 1545 1546 1546 1546 1547 1547 1547 1548 1548 1548 1548 1547 1547 1546 1546 1545 1544 1543 1542 1541 1540 1539 1538 1537 1535 1534 1533
1534 1536 1537 1539 1540 1541 1542 1543 1544 1544 1544 1545 1545 1546 1546 1547 1547 1547 1547 1548 1548 1549 1549 1549 1549 1548 1548 1548 1547 1546 1546 1545 1544 1543 1542 1541 1540 1539 1537 1536 1535 1534 1532
1535 1537 1538 1540 1541 1542 1543 1544 1545 1546 1546 1546 1547 1547 1547 1548 1548 1549 1549 1549 1550 1550 1550 1550 1549 1549 1548 1548 1547 1546 1546 1545 1544 1543 1542 1541 1539 1538 1537 1536 1534 1533 1532
1536 1537 1539 1541 1542 1543 1544 1545 1546 1546 1547 1547 1548 1548 1549 1549 1550 1550 1550 1550 1550 1550 1550 1550 1549 1549 1548 1547 1547 1546 1545 1544 1543 1542 1541 1540 1539 1538 1536 1535 1534 1532 1531
1536 1538 1539 1541 1543 1544 1545 1546 1547 1547 1548 1548 1549 1549 1550 1550 1551 1551 1551 1551 1551 1551 1550 1550 1549 1548 1547 1546 1546 1545 1544 1543 1542 1541 1540 1539 1538 1537 1536 1534 1533 1531 1530
1537 1539 1540 1542 1543 1545 1546 1547 1548 1548 1549 1550 1550 1550 1551 1551 1551 1551 1552 1552 1552 1551 1551 1550 1549 1548 1547 1546 1545 1544 1543 1542 1541 1540 1539 1538 1537 1536 1535 1533 1532 1530 1529
1539 1540 1541 1543 1544 1545 1547 1548 1549 1549 1550 1550 1551 1551 1551 1551 1552 1552 1552 1552 1552 1551 1551 1550 1549 1548 1547 1546 1544 1543 1542 1541 1540 1539 1538 1537 1536 1535 1534 1532 1531 1529 1528
1539 1541 1542 1544 1545 1546 1547 1548 1549 1550 1550 1551 1551 1552 1552 1552 1552 1552 1552 1552 1551 1551 1550 1550 1549 1548 1547 1546 1544 1543 1542 1541 1539 1538 1537 1535 1534 1533 1532 1531 1529 1528 1526
1540 1542 1543 1544 1545 1547 1548 1549 1550 1550 1551 1552 1552 1552 1552 1552 1552 1552 1552 1552 1551 1551 1550 1550 1549 1548 1546 1545 1544 1542 1541 1539 1538 1537 1535 1534 1533 1532 1530 1529 1528 1526 1525